Regional Weather Roundup
Issued by NWS Cleveland, OH

Home | Current Version | Previous Version | Graphics & Text | Print | Product List | Glossary On
Versions: 1 2 3 4 5 6 7 8 9 10 11 12 13 14 15 16 17 18 19 20 21 22 23 24 25 26 27 28 29 30 31 32 33 34 35 36 37 38 39 40 41 42 43 44 45 46 47 48 49 50
000
ASUS41 KCLE 282212
RWRCLE
OHIO REGIONAL WEATHER ROUNDUP
NATIONAL WEATHER SERVICE WILMINGTON, OH
600 PM EDT THU JUL 28 2016

NOTE: "FAIR" INDICATES FEW OR NO CLOUDS BELOW 12,000 FEET WITH NO
SIGNIFICANT WEATHER AND/OR OBSTRUCTIONS TO VISIBILITY.

OHZ001>008-015>018-024>027-034-035-043-044-282300-
   NORTHWEST OHIO

CITY           SKY/WX    TMP DP  RH WIND       PRES   REMARKS
DEFIANCE       FAIR      87  66  49 VRB5      29.87S
FINDLAY        CLOUDY    85  65  51 NE13      29.85S
TOLEDO EXPRESS FAIR      84  67  56 E7        29.86S
TOLEDO EXEC    FAIR      84  70  62 NE7       29.87F
LIMA           FAIR      86  65  49 NE3       29.87S
$$

OHZ009>014-019>023-028>033-038-089-282300-
   NORTHEAST OHIO

CITY           SKY/WX    TMP DP  RH WIND       PRES   REMARKS
CLE-HOPKINS    CLOUDY    83  62  49 N9        29.89S
CLE-LAKEFRONT  FAIR      80  70  71 NE10      29.86S
CUY CO. ARPT   PTSUNNY   82  68  61 NE12      29.88S
LORAIN-ELYRIA  FAIR      80  62  54 N7        29.88S
ASHTABULA      FAIR      79  70  74 S5        29.89R
AKRON-CANTON   CLOUDY    77  68  73 S6        29.89S
WOOSTER        FAIR      77  69  76 S3        29.89S
MANSFIELD      FAIR      83  65  54 E6        29.89S
YOUNGSTOWN     CLOUDY    77  66  68 S7        29.90R
$$

OHZ042-051>053-060>062-070>072-077>081-282300-
  SOUTHWEST OHIO

CITY           SKY/WX    TMP DP  RH WIND       PRES   REMARKS
CINC-COVINGTON FAIR      81  70  69 CALM      29.88R
CINC-LUNKEN    FAIR      82  72  71 S6        29.87R
HAMILTON       FAIR      83  71  67 CALM      29.87S
DAYTON         PTSUNNY   85  66  53 N6        29.88R
WRIGHT-PAT AFB NOT AVBL
DAYTON GENERAL PTSUNNY   82  68  62 SW7       29.87R
WILMINGTON     PTSUNNY   81  71  71 S7        29.88S
$$

OHZ036-037-039>041-045>050-054>059-063>069-073>076-082>088-282300-
  CENTRAL AND SOUTHEAST OHIO

CITY           SKY/WX    TMP DP  RH WIND       PRES   REMARKS
COLUMBUS       CLOUDY    80  70  71 SE9       29.86S
OSU AIRPORT    FAIR      81  71  71 VRB3      29.86S
BOLTON FIELD   MOSUNNY   81  73  78 S6        29.87
RICKENBACK AFB FAIR      79  71  77 S8        29.86S
NEWARK         RAIN      74  72  93 N5        29.88R FOG
MARION         FAIR      83  67  58 CALM      29.87S
LANCASTER      CLOUDY    78  72  81 S3        29.88S
ZANESVILLE     PTSUNNY   78  72  81 SE3       29.89S
NEW PHILLY     CLOUDY    74  68  81 S5        29.90R
$$




USA.gov is the U.S. government's official web portal to all federal, state and local government web resources and services.